| time (UTC) | temp C | wind direction | speed KPH | gust KPH | rain 1hr cm | rain 24hr cm | rain mn cm | humidity % | barometer mb |
| 20260505203630 | 16 | 90 | 0.0 | 0.0 | 0.00 | 0.00 | 0.00 | 4 | 1220.1 |
| 20260505203127 | 17 | 90 | 0.0 | 0.0 | 0.00 | 0.00 | 0.00 | 4 | 1219.9 |
| 20260505202624 | 17 | 90 | 0.0 | 0.0 | 0.00 | 0.00 | 0.00 | 4 | 1217.8 |
| 20260505202122 | 17 | 90 | 0.0 | 0.0 | 0.00 | 0.00 | 0.00 | 4 | 1217.2 |
| 20260505201619 | 17 | 90 | 0.0 | 0.0 | 0.00 | 0.00 | 0.00 | 4 | 1217.6 |
| 20260505200611 | 17 | 90 | 0.0 | 0.0 | 0.00 | 0.00 | 0.00 | 4 | 1218.3 |
| 20260505200108 | 17 | 90 | 4.8 | 4.8 | 0.00 | 0.00 | 0.00 | 4 | 1218.1 |
| 20260505195605 | 17 | 90 | 4.8 | 6.4 | 0.00 | 0.00 | 0.00 | 4 | 1217.8 |
| 20260505195102 | 17 | 90 | 4.8 | 6.4 | 0.00 | 0.00 | 0.00 | 4 | 1217.6 |
| 20260505194600 | 18 | 90 | 4.8 | 8.0 | 0.00 | 0.00 | 0.00 | 4 | 1217.2 |
| 20260505193046 | 18 | 90 | 6.4 | 6.4 | 0.00 | 0.00 | 0.00 | 4 | 1217.1 |
| 20260505192543 | 18 | 90 | 0.0 | 4.8 | 0.00 | 0.00 | 0.00 | 4 | 1217.8 |
| 20260505192040 | 18 | 90 | 6.4 | 9.7 | 0.00 | 0.00 | 0.00 | 4 | 1217.6 |
| 20260505191538 | 18 | 90 | 8.0 | 16.1 | 0.00 | 0.00 | 0.00 | 5 | 1219.0 |
| 20260505191035 | 18 | 90 | 4.8 | 14.5 | 0.00 | 0.00 | 0.00 | 4 | 1217.4 |
| 20260505190532 | 18 | 90 | 6.4 | 12.9 | 0.00 | 0.00 | 0.00 | 4 | 1217.4 |
| 20260505190029 | 18 | 90 | 4.8 | 11.3 | 0.00 | 0.00 | 0.00 | 4 | 1216.9 |
| 20260505185526 | 18 | 90 | 6.4 | 11.3 | 0.00 | 0.00 | 0.00 | 4 | 1217.9 |
| 20260505185024 | 19 | 90 | 6.4 | 12.9 | 0.00 | 0.00 | 0.00 | 4 | 1215.4 |
| 20260505184521 | 19 | 90 | 6.4 | 9.7 | 0.00 | 0.00 | 0.00 | 4 | 1216.2 |
| 20260505184018 | 19 | 90 | 8.0 | 19.3 | 0.00 | 0.00 | 0.00 | 4 | 1216.4 |
| 20260505183515 | 19 | 90 | 6.4 | 11.3 | 0.00 | 0.00 | 0.00 | 4 | 1217.2 |
| 20260505183012 | 20 | 90 | 8.0 | 14.5 | 0.00 | 0.00 | 0.00 | 4 | 1215.9 |
| 20260505182510 | 20 | 90 | 9.7 | 20.9 | 0.00 | 0.00 | 0.00 | 4 | 1216.5 |
| 20260505182007 | 20 | 90 | 8.0 | 14.5 | 0.00 | 0.00 | 0.00 | 4 | 1216.9 |
| 20260505181504 | 20 | 90 | 8.0 | 17.7 | 0.00 | 0.00 | 0.00 | 4 | 1214.2 |
| 20260505181001 | 20 | 90 | 9.7 | 17.7 | 0.00 | 0.00 | 0.00 | 4 | 1215.5 |
| 20260505180459 | 20 | 90 | 8.0 | 16.1 | 0.00 | 0.00 | 0.00 | 4 | 1214.6 |
| 20260505175956 | 20 | 90 | 6.4 | 11.3 | 0.00 | 0.00 | 0.00 | 4 | 1213.1 |
| 20260505174948 | 21 | 90 | 8.0 | 17.7 | 0.00 | 0.00 | 0.00 | 4 | 1212.8 |
| 20260505174445 | 21 | 90 | 11.3 | 17.7 | 0.00 | 0.00 | 0.00 | 4 | 1212.8 |
| 20260505173942 | 21 | 90 | 11.3 | 17.7 | 0.00 | 0.00 | 0.00 | 4 | 1211.9 |
| 20260505173439 | 21 | 90 | 11.3 | 20.9 | 0.00 | 0.00 | 0.00 | 4 | 1211.2 |
| 20260505172937 | 22 | 90 | 11.3 | 19.3 | 0.00 | 0.00 | 0.00 | 4 | 1210.9 |
| 20260505172434 | 22 | 90 | 12.9 | 20.9 | 0.00 | 0.00 | 0.00 | 4 | 1211.9 |
| 20260505171931 | 22 | 90 | 12.9 | 17.7 | 0.00 | 0.00 | 0.00 | 4 | 1212.1 |
| 20260505171428 | 22 | 90 | 12.9 | 24.1 | 0.00 | 0.00 | 0.00 | 4 | 1209.1 |
| 20260505170925 | 22 | 90 | 14.5 | 25.7 | 0.00 | 0.00 | 0.00 | 4 | 1210.0 |
| 20260505170423 | 23 | 90 | 14.5 | 24.1 | 0.00 | 0.00 | 0.00 | 4 | 1209.1 |
| 20260505165920 | 23 | 90 | 11.3 | 20.9 | 0.00 | 0.00 | 0.00 | 3 | 1207.3 |
| 20260505165417 | 23 | 90 | 12.9 | 22.5 | 0.00 | 0.00 | 0.00 | 4 | 1209.0 |
| 20260505164914 | 23 | 90 | 9.7 | 19.3 | 0.00 | 0.00 | 0.00 | 3 | 1207.3 |
| 20260505164412 | 23 | 90 | 9.7 | 24.1 | 0.00 | 0.00 | 0.00 | 3 | 1206.9 |
| 20260505163909 | 23 | 90 | 9.7 | 17.7 | 0.00 | 0.00 | 0.00 | 3 | 1206.6 |
| 20260505162903 | 23 | 90 | 12.9 | 22.5 | 0.00 | 0.00 | 0.00 | 3 | 1208.2 |
| 20260505162400 | 23 | 90 | 9.7 | 19.3 | 0.00 | 0.00 | 0.00 | 4 | 1209.3 |
| 20260505161352 | 23 | 90 | 8.0 | 12.9 | 0.00 | 0.00 | 0.00 | 3 | 1207.0 |
| 20260505160850 | 24 | 90 | 9.7 | 22.5 | 0.00 | 0.00 | 0.00 | 3 | 1205.9 |
| 20260505160347 | 25 | 90 | 11.3 | 19.3 | 0.00 | 0.00 | 0.00 | 3 | 1206.5 |
| 20260505152825 | 25 | 90 | 22.5 | 41.8 | 0.00 | 0.00 | 0.00 | 3 | 1207.2 |
| 20260505152322 | 25 | 90 | 17.7 | 38.6 | 0.00 | 0.00 | 0.00 | 3 | 1206.1 |
| 20260505151819 | 25 | 90 | 19.3 | 37.0 | 0.00 | 0.00 | 0.00 | 3 | 1206.5 |
| 20260505151316 | 25 | 90 | 17.7 | 27.4 | 0.00 | 0.00 | 0.00 | 3 | 1205.1 |
| 20260505150814 | 25 | 67 | 22.5 | 43.5 | 0.00 | 0.00 | 0.00 | 3 | 1207.2 |
| 20260505150310 | 26 | 90 | 20.9 | 37.0 | 0.00 | 0.00 | 0.00 | 3 | 1206.6 |
| 20260505140226 | 27 | 90 | 16.1 | 25.7 | 0.00 | 0.00 | 0.00 | 2 | 1200.9 |
| 20260505130150 | 27 | 67 | 16.1 | 30.6 | 0.00 | 0.00 | 0.00 | 2 | 1203.8 |
| 20260505124641 | 27 | 45 | 12.9 | 29.0 | 0.00 | 0.00 | 0.00 | 2 | 1203.8 |
| 20260505124139 | 27 | 67 | 16.1 | 25.7 | 0.00 | 0.00 | 0.00 | 2 | 1204.5 |
| 20260505123636 | 27 | 45 | 14.5 | 30.6 | 0.00 | 0.00 | 0.00 | 2 | 1204.8 |
| 20260505123133 | 27 | 67 | 17.7 | 35.4 | 0.00 | 0.00 | 0.00 | 2 | 1205.6 |
| 20260505122630 | 26 | 90 | 16.1 | 30.6 | 0.00 | 0.00 | 0.00 | 2 | 1205.9 |
| 20260505122127 | 27 | 90 | 14.5 | 29.0 | 0.00 | 0.00 | 0.00 | 2 | 1204.5 |
| 20260505121625 | 27 | 67 | 11.3 | 20.9 | 0.00 | 0.00 | 0.00 | 2 | 1204.9 |
| 20260505121122 | 26 | 45 | 12.9 | 24.1 | 0.00 | 0.00 | 0.00 | 3 | 1206.5 |
| 20260505120619 | 27 | 67 | 11.3 | 25.7 | 0.00 | 0.00 | 0.00 | 3 | 1205.9 |
| 20260505120116 | 26 | 67 | 12.9 | 24.1 | 0.00 | 0.00 | 0.00 | 3 | 1206.5 |
| 20260505115614 | 26 | 45 | 11.3 | 19.3 | 0.00 | 0.00 | 0.00 | 3 | 1207.3 |
| 20260505115111 | 26 | 67 | 9.7 | 20.9 | 0.00 | 0.00 | 0.00 | 3 | 1207.5 |
| 20260505114608 | 26 | 67 | 9.7 | 17.7 | 0.00 | 0.00 | 0.00 | 3 | 1206.6 |
| 20260505114105 | 25 | 67 | 12.9 | 20.9 | 0.00 | 0.00 | 0.00 | 3 | 1208.9 |
| 20260505113603 | 25 | 67 | 12.9 | 20.9 | 0.00 | 0.00 | 0.00 | 3 | 1208.4 |
| 20260505113100 | 25 | 67 | 11.3 | 27.4 | 0.00 | 0.00 | 0.00 | 3 | 1209.7 |
| 20260505112557 | 25 | 67 | 12.9 | 20.9 | 0.00 | 0.00 | 0.00 | 3 | 1210.3 |
| 20260505112054 | 25 | 67 | 14.5 | 27.4 | 0.00 | 0.00 | 0.00 | 3 | 1211.0 |
| 20260505111046 | 25 | 67 | 9.7 | 16.1 | 0.00 | 0.00 | 0.00 | 3 | 1210.9 |
| 20260505110543 | 24 | 67 | 9.7 | 16.1 | 0.00 | 0.00 | 0.00 | 4 | 1211.5 |
| 20260505101510 | 23 | 90 | 6.4 | 14.5 | 0.00 | 0.00 | 0.00 | 4 | 1214.1 |
| 20260505101007 | 23 | 90 | 8.0 | 16.1 | 0.00 | 0.00 | 0.00 | 4 | 1215.5 |
| 20260505100504 | 23 | 90 | 4.8 | 9.7 | 0.00 | 0.00 | 0.00 | 4 | 1215.4 |
| 20260505100002 | 22 | 90 | 6.4 | 11.3 | 0.00 | 0.00 | 0.00 | 4 | 1216.2 |
| 20260505094954 | 22 | 90 | 8.0 | 12.9 | 0.00 | 0.00 | 0.00 | 4 | 1216.8 |
| 20260505094451 | 22 | 90 | 8.0 | 14.5 | 0.00 | 0.00 | 0.00 | 4 | 1215.7 |
| 20260505093948 | 23 | 90 | 6.4 | 14.5 | 0.00 | 0.00 | 0.00 | 4 | 1214.2 |
| 20260505093445 | 22 | 90 | 9.7 | 22.5 | 0.00 | 0.00 | 0.00 | 4 | 1215.5 |
| 20260505092943 | 23 | 90 | 8.0 | 14.5 | 0.00 | 0.00 | 0.00 | 4 | 1215.6 |
| 20260505092440 | 22 | 90 | 9.7 | 19.3 | 0.00 | 0.00 | 0.00 | 4 | 1215.1 |
| 20260505091937 | 23 | 90 | 8.0 | 16.1 | 0.00 | 0.00 | 0.00 | 4 | 1215.8 |
| 20260505091434 | 23 | 90 | 4.8 | 12.9 | 0.00 | 0.00 | 0.00 | 4 | 1217.0 |
| 20260505090931 | 23 | 90 | 6.4 | 12.9 | 0.00 | 0.00 | 0.00 | 3 | 1214.5 |
| 20260505090429 | 22 | 90 | 8.0 | 14.5 | 0.00 | 0.00 | 0.00 | 4 | 1215.1 |
| 20260505085926 | 22 | 90 | 6.4 | 9.7 | 0.00 | 0.00 | 0.00 | 4 | 1214.3 |
| 20260505085423 | 22 | 90 | 6.4 | 9.7 | 0.00 | 0.00 | 0.00 | 4 | 1217.2 |
| 20260505084920 | 22 | 90 | 6.4 | 11.3 | 0.00 | 0.00 | 0.00 | 4 | 1214.2 |
| 20260505084418 | 21 | 90 | 6.4 | 11.3 | 0.00 | 0.00 | 0.00 | 4 | 1217.4 |
| 20260505083915 | 20 | 90 | 4.8 | 9.7 | 0.00 | 0.00 | 0.00 | 5 | 1222.6 |
| 20260505083412 | 19 | 90 | 6.4 | 11.3 | 0.00 | 0.00 | 0.00 | 5 | 1221.7 |
| 20260505082909 | 19 | 90 | 4.8 | 9.7 | 0.00 | 0.00 | 0.00 | 5 | 1223.8 |
| 20260505082406 | 18 | 90 | 6.4 | 9.7 | 0.00 | 0.00 | 0.00 | 5 | 1222.0 |
| 20260505081904 | 19 | 90 | 6.4 | 9.7 | 0.00 | 0.00 | 0.00 | 4 | 1220.1 |
| 20260505081401 | 19 | 90 | 6.4 | 12.9 | 0.00 | 0.00 | 0.00 | 5 | 1222.6 |
| 20260505080858 | 18 | 90 | 6.4 | 11.3 | 0.00 | 0.00 | 0.00 | 4 | 1221.9 |
| 20260505080356 | 18 | 90 | 6.4 | 8.0 | 0.00 | 0.00 | 0.00 | 5 | 1222.1 |
| 20260505075853 | 18 | 90 | 0.0 | 0.0 | 0.00 | 0.00 | 0.00 | 5 | 1226.0 |
| 20260505075350 | 18 | 90 | 0.0 | 0.0 | 0.00 | 0.00 | 0.00 | 5 | 1226.6 |
| 20260505074847 | 18 | 90 | 4.8 | 8.0 | 0.00 | 0.00 | 0.00 | 5 | 1227.3 |
| 20260505074344 | 17 | 90 | 6.4 | 0.0 | 0.00 | 0.00 | 0.00 | 5 | 1224.7 |
| 20260505073842 | 17 | 90 | 0.0 | 0.0 | 0.00 | 0.00 | 0.00 | 5 | 1228.2 |
| 20260505073339 | 17 | 90 | 0.0 | 0.0 | 0.00 | 0.00 | 0.00 | 5 | 1229.7 |
| 20260505072836 | 16 | 90 | 0.0 | 0.0 | 0.00 | 0.00 | 0.00 | 5 | 1227.7 |
| 20260505072334 | 16 | 90 | 0.0 | 0.0 | 0.00 | 0.00 | 0.00 | 4 | 1221.6 |
| 20260505071831 | 16 | 90 | 4.8 | 4.8 | 0.00 | 0.00 | 0.00 | 4 | 1222.2 |
| 20260505071328 | 16 | 90 | 0.0 | 0.0 | 0.00 | 0.00 | 0.00 | 4 | 1226.6 |
| 20260505070825 | 16 | 90 | 0.0 | 0.0 | 0.00 | 0.00 | 0.00 | 4 | 1224.2 |
| 20260505070323 | 16 | 90 | 0.0 | 0.0 | 0.00 | 0.00 | 0.00 | 5 | 1228.7 |
| 20260505065314 | 15 | 90 | 0.0 | 0.0 | 0.00 | 0.00 | 0.00 | 4 | 1225.6 |
| 20260505064812 | 15 | 90 | 0.0 | 0.0 | 0.00 | 0.00 | 0.00 | 4 | 1223.2 |
| 20260505064309 | 16 | 90 | 0.0 | 0.0 | 0.00 | 0.00 | 0.00 | 4 | 1223.5 |
| 20260505063301 | 15 | 90 | 0.0 | 0.0 | 0.00 | 0.00 | 0.00 | 5 | 1228.2 |
| 20260505062758 | 15 | 90 | 0.0 | 0.0 | 0.00 | 0.00 | 0.00 | 5 | 1227.2 |
| 20260505062255 | 14 | 90 | 0.0 | 0.0 | 0.00 | 0.00 | 0.00 | 5 | 1230.3 |
| 20260505061751 | 13 | 90 | 0.0 | 0.0 | 0.00 | 0.00 | 0.00 | 6 | 1233.3 |
| 20260505061249 | 13 | 90 | 0.0 | 0.0 | 0.00 | 0.00 | 0.00 | 6 | 1233.6 |
| 20260505060746 | 13 | 90 | 0.0 | 0.0 | 0.00 | 0.00 | 0.00 | 6 | 1232.8 |
| 20260505060243 | 13 | 90 | 0.0 | 0.0 | 0.00 | 0.00 | 0.00 | 6 | 1232.7 |
| 20260505055740 | 13 | 90 | 0.0 | 0.0 | 0.00 | 0.00 | 0.00 | 6 | 1233.8 |
| 20260505055237 | 13 | 90 | 0.0 | 0.0 | 0.00 | 0.00 | 0.00 | 6 | 1232.7 |
| 20260505054735 | 13 | 90 | 0.0 | 0.0 | 0.00 | 0.00 | 0.00 | 5 | 1229.9 |
| 20260505054232 | 13 | 90 | 0.0 | 0.0 | 0.00 | 0.00 | 0.00 | 5 | 1230.9 |
| 20260505053729 | 13 | 90 | 0.0 | 0.0 | 0.00 | 0.00 | 0.00 | 5 | 1230.6 |
| 20260505053226 | 12 | 90 | 0.0 | 0.0 | 0.00 | 0.00 | 0.00 | 6 | 1234.7 |
| 20260505051713 | 12 | 90 | 0.0 | 0.0 | 0.00 | 0.00 | 0.00 | 6 | 1237.0 |
| 20260505051210 | 12 | 90 | 0.0 | 0.0 | 0.00 | 0.00 | 0.00 | 6 | 1233.9 |
| 20260505050707 | 12 | 90 | 0.0 | 0.0 | 0.00 | 0.00 | 0.00 | 6 | 1235.3 |
| 20260505050204 | 11 | 90 | 0.0 | 0.0 | 0.00 | 0.00 | 0.00 | 6 | 1236.3 |
| 20260505041640 | 8 | 90 | 0.0 | 0.0 | 0.00 | 0.00 | 0.00 | 6 | 1241.4 |
| 20260505041137 | 8 | 90 | 0.0 | 0.0 | 0.00 | 0.00 | 0.00 | 6 | 1241.0 |
| 20260505040634 | 8 | 90 | 0.0 | 0.0 | 0.00 | 0.00 | 0.00 | 6 | 1241.0 |
| 20260505040131 | 8 | 90 | 0.0 | 0.0 | 0.00 | 0.00 | 0.00 | 6 | 1241.2 |
| 20260505035628 | 8 | 90 | 0.0 | 0.0 | 0.00 | 0.00 | 0.00 | 6 | 1241.0 |
| 20260505035126 | 8 | 90 | 0.0 | 0.0 | 0.00 | 0.00 | 0.00 | 6 | 1241.3 |
| 20260505034117 | 8 | 90 | 0.0 | 0.0 | 0.00 | 0.00 | 0.00 | 6 | 1240.5 |
| 20260505033615 | 9 | 90 | 0.0 | 0.0 | 0.00 | 0.00 | 0.00 | 6 | 1240.7 |
| 20260505033112 | 9 | 90 | 0.0 | 0.0 | 0.00 | 0.00 | 0.00 | 6 | 1241.8 |
| 20260505032609 | 9 | 90 | 0.0 | 0.0 | 0.00 | 0.00 | 0.00 | 6 | 1239.2 |
| 20260505032107 | 8 | 90 | 0.0 | 0.0 | 0.00 | 0.00 | 0.00 | 6 | 1239.7 |
| 20260505031604 | 8 | 90 | 0.0 | 0.0 | 0.00 | 0.00 | 0.00 | 6 | 1239.9 |
| 20260505031101 | 8 | 90 | 0.0 | 0.0 | 0.00 | 0.00 | 0.00 | 6 | 1240.0 |
| 20260505030558 | 8 | 90 | 0.0 | 0.0 | 0.00 | 0.00 | 0.00 | 6 | 1240.7 |
| 20260505030056 | 8 | 90 | 0.0 | 0.0 | 0.00 | 0.00 | 0.00 | 6 | 1242.1 |
| 20260505025553 | 8 | 90 | 0.0 | 0.0 | 0.00 | 0.00 | 0.00 | 6 | 1240.0 |
| 20260505025050 | 9 | 90 | 0.0 | 0.0 | 0.00 | 0.00 | 0.00 | 6 | 1239.8 |
| 20260505024547 | 9 | 90 | 0.0 | 0.0 | 0.00 | 0.00 | 0.00 | 6 | 1239.7 |
| 20260505024045 | 9 | 90 | 0.0 | 0.0 | 0.00 | 0.00 | 0.00 | 6 | 1239.6 |
| 20260505023036 | 10 | 90 | 0.0 | 0.0 | 0.00 | 0.00 | 0.00 | 6 | 1238.9 |
| 20260505022534 | 10 | 90 | 0.0 | 0.0 | 0.00 | 0.00 | 0.00 | 6 | 1238.6 |
| 20260505021525 | 11 | 90 | 0.0 | 0.0 | 0.00 | 0.00 | 0.00 | 5 | 1237.1 |
| 20260505021022 | 11 | 90 | 0.0 | 0.0 | 0.00 | 0.00 | 0.00 | 6 | 1237.9 |
| 20260505020014 | 11 | 90 | 0.0 | 0.0 | 0.00 | 0.00 | 0.00 | 5 | 1234.9 |
| 20260505015512 | 11 | 90 | 0.0 | 0.0 | 0.00 | 0.00 | 0.00 | 5 | 1235.1 |
| 20260505015009 | 11 | 90 | 0.0 | 0.0 | 0.00 | 0.00 | 0.00 | 5 | 1235.4 |
| 20260505014001 | 11 | 90 | 0.0 | 0.0 | 0.00 | 0.00 | 0.00 | 5 | 1235.3 |
| 20260505013458 | 11 | 90 | 0.0 | 0.0 | 0.00 | 0.00 | 0.00 | 5 | 1236.5 |
| 20260505012955 | 11 | 90 | 0.0 | 0.0 | 0.00 | 0.00 | 0.00 | 5 | 1236.2 |
| 20260505012452 | 11 | 90 | 0.0 | 0.0 | 0.00 | 0.00 | 0.00 | 5 | 1236.2 |
| 20260505011950 | 11 | 90 | 0.0 | 0.0 | 0.00 | 0.00 | 0.00 | 5 | 1235.6 |
| 20260505011447 | 11 | 90 | 0.0 | 0.0 | 0.00 | 0.00 | 0.00 | 5 | 1236.0 |
| 20260505010944 | 11 | 90 | 0.0 | 0.0 | 0.00 | 0.00 | 0.00 | 5 | 1236.0 |
| 20260505010440 | 11 | 90 | 0.0 | 0.0 | 0.00 | 0.00 | 0.00 | 5 | 1236.4 |
| 20260505005938 | 11 | 90 | 0.0 | 0.0 | 0.00 | 0.00 | 0.00 | 5 | 1237.2 |
| 20260505005435 | 11 | 90 | 0.0 | 0.0 | 0.00 | 0.00 | 0.00 | 5 | 1236.8 |
| 20260505004932 | 11 | 90 | 0.0 | 0.0 | 0.00 | 0.00 | 0.00 | 5 | 1235.6 |
| 20260505003924 | 12 | 90 | 0.0 | 0.0 | 0.00 | 0.00 | 0.00 | 5 | 1235.1 |
| 20260505003421 | 12 | 90 | 0.0 | 0.0 | 0.00 | 0.00 | 0.00 | 5 | 1234.5 |
| 20260505002918 | 13 | 90 | 0.0 | 0.0 | 0.00 | 0.00 | 0.00 | 5 | 1234.6 |
| 20260505002416 | 13 | 90 | 0.0 | 0.0 | 0.00 | 0.00 | 0.00 | 5 | 1232.4 |
| 20260505001913 | 13 | 90 | 0.0 | 0.0 | 0.00 | 0.00 | 0.00 | 5 | 1231.4 |
| 20260505001410 | 13 | 90 | 0.0 | 0.0 | 0.00 | 0.00 | 0.00 | 5 | 1230.5 |
| 20260505000907 | 14 | 90 | 0.0 | 0.0 | 0.00 | 0.00 | 0.00 | 4 | 1229.1 |
| 20260505000406 | 15 | 90 | 0.0 | 0.0 | 0.00 | 0.00 | 0.00 | 4 | 1229.6 |
| 20260504235902 | 16 | 90 | 0.0 | 0.0 | 0.00 | 0.00 | 0.00 | 4 | 1227.0 |
| 20260504235359 | 16 | 90 | 0.0 | 0.0 | 0.00 | 0.00 | 0.00 | 4 | 1226.3 |
| 20260504234351 | 16 | 90 | 0.0 | 0.0 | 0.00 | 0.00 | 0.00 | 4 | 1226.7 |
| 20260504233848 | 16 | 90 | 0.0 | 0.0 | 0.00 | 0.00 | 0.00 | 4 | 1226.9 |
| 20260504233345 | 16 | 90 | 0.0 | 0.0 | 0.00 | 0.00 | 0.00 | 4 | 1226.9 |
| 20260504232843 | 16 | 90 | 0.0 | 0.0 | 0.00 | 0.00 | 0.00 | 4 | 1226.5 |
| 20260504232340 | 16 | 90 | 0.0 | 0.0 | 0.00 | 0.00 | 0.00 | 4 | 1226.5 |
| 20260504231837 | 16 | 90 | 0.0 | 0.0 | 0.00 | 0.00 | 0.00 | 4 | 1226.1 |
| 20260504231334 | 16 | 90 | 0.0 | 0.0 | 0.00 | 0.00 | 0.00 | 4 | 1225.0 |
| 20260504230832 | 16 | 90 | 0.0 | 0.0 | 0.00 | 0.00 | 0.00 | 4 | 1225.9 |
| 20260504230329 | 16 | 90 | 0.0 | 0.0 | 0.00 | 0.00 | 0.00 | 4 | 1225.8 |
| 20260504225826 | 16 | 90 | 0.0 | 0.0 | 0.00 | 0.00 | 0.00 | 4 | 1225.8 |
| 20260504225323 | 17 | 90 | 0.0 | 0.0 | 0.00 | 0.00 | 0.00 | 4 | 1225.7 |
| 20260504224821 | 17 | 90 | 0.0 | 0.0 | 0.00 | 0.00 | 0.00 | 4 | 1226.4 |
| 20260504224318 | 17 | 90 | 0.0 | 0.0 | 0.00 | 0.00 | 0.00 | 4 | 1225.8 |
| 20260504223815 | 17 | 90 | 0.0 | 0.0 | 0.00 | 0.00 | 0.00 | 4 | 1226.1 |
| 20260504223312 | 18 | 90 | 6.4 | 8.0 | 0.00 | 0.00 | 0.00 | 4 | 1227.3 |
| 20260504222810 | 18 | 90 | 6.4 | 14.5 | 0.00 | 0.00 | 0.00 | 4 | 1227.6 |
| 20260504222307 | 18 | 90 | 6.4 | 14.5 | 0.00 | 0.00 | 0.00 | 4 | 1225.2 |
| 20260504221804 | 18 | 90 | 4.8 | 9.7 | 0.00 | 0.00 | 0.00 | 4 | 1224.7 |
| 20260504221301 | 18 | 90 | 4.8 | 0.0 | 0.00 | 0.00 | 0.00 | 4 | 1224.4 |
| 20260504220758 | 17 | 90 | 4.8 | 0.0 | 0.00 | 0.00 | 0.00 | 4 | 1223.9 |
| 20260504220256 | 17 | 90 | 6.4 | 8.0 | 0.00 | 0.00 | 0.00 | 4 | 1224.1 |
| 20260504215753 | 17 | 90 | 4.8 | 6.4 | 0.00 | 0.00 | 0.00 | 4 | 1224.0 |
| 20260504215250 | 18 | 90 | 4.8 | 4.8 | 0.00 | 0.00 | 0.00 | 4 | 1223.1 |
| 20260504214747 | 18 | 90 | 0.0 | 0.0 | 0.00 | 0.00 | 0.00 | 4 | 1223.0 |
| 20260504214245 | 18 | 90 | 6.4 | 6.4 | 0.00 | 0.00 | 0.00 | 4 | 1223.2 |
| 20260504213742 | 18 | 90 | 4.8 | 4.8 | 0.00 | 0.00 | 0.00 | 4 | 1223.6 |
| 20260504213239 | 18 | 90 | 0.0 | 0.0 | 0.00 | 0.00 | 0.00 | 4 | 1222.7 |
| 20260504212736 | 18 | 90 | 0.0 | 0.0 | 0.00 | 0.00 | 0.00 | 4 | 1222.3 |
| 20260504212234 | 19 | 90 | 0.0 | 0.0 | 0.00 | 0.00 | 0.00 | 3 | 1222.0 |
| 20260504210720 | 19 | 90 | 0.0 | 0.0 | 0.00 | 0.00 | 0.00 | 4 | 1222.7 |
| 20260504210217 | 20 | 90 | 8.0 | 12.9 | 0.00 | 0.00 | 0.00 | 4 | 1223.0 |
| 20260504205715 | 20 | 90 | 6.4 | 12.9 | 0.00 | 0.00 | 0.00 | 4 | 1223.6 |
| 20260504205212 | 20 | 90 | 6.4 | 16.1 | 0.00 | 0.00 | 0.00 | 4 | 1223.8 |
| 20260504204709 | 20 | 90 | 12.9 | 24.1 | 0.00 | 0.00 | 0.00 | 4 | 1224.1 |
| 20260504204206 | 20 | 90 | 6.4 | 14.5 | 0.00 | 0.00 | 0.00 | 4 | 1223.7 |